This demonstration page uses our WeatherBlox Daily Observations layout. Learn more.

Left ArrowRight Arrow

Hourly Observations for February 23, 2019

Temp ( °F °C ) Dew Point ( °F °C ) Humidity (%) Winds ( mph kmh ) Pressure ( in mb ) Visibility ( mi km ) Precip ( " mm )
12:02 am 00:02 Cloudy with Light Freezing Drizzle 33 0.6 30 -1.1 89 89 Calm 30.05 1018 1 1 0.00 0.03
12:17 am 00:17 Cloudy with Light Freezing Drizzle 32 0 29 -1.7 88 88 E 3 6 30.04 1017 2 3 0.00 0.03
12:52 am 00:52 Cloudy with Light Freezing Drizzle 32 0 29 -1.7 88 88 ENE 6 9 30.00 1016 2 2 0.00 0.03
1:06 am 01:06 Cloudy with Light Freezing Drizzle 32 0 29 -1.7 88 88 ENE 5 7 30.02 1017 2 3 0.00 0.03
1:42 am 01:42 Cloudy with Light Freezing Drizzle 32 0 29 -1.7 88 88 E 3 6 30.01 1016 3 5 0.00 0.03
1:52 am 01:52 Cloudy with Light Freezing Drizzle 32 0 29 -1.7 88 88 ENE 3 6 29.98 1015 3 5 0.00 0.03
2:16 am 02:16 Cloudy with Mist and Fog 32 0 29 -1.7 88 88 ENE 5 7 30.01 1016 3 5 0.00 0.03
2:52 am 02:52 Cloudy with Mist and Fog 32 0 29 -1.7 88 88 NE 3 6 29.98 1015 3 4 0.00 0.03
3:05 am 03:05 Cloudy with Mist and Fog 32 0 29 -1.7 88 88 NE 5 7 29.99 1016 3 4 0.00 0.00
3:52 am 03:52 Cloudy with Mist and Fog 32 0 29 -1.7 88 88 Calm 29.94 1014 3 5 0.00 0.00
4:45 am 04:45 Cloudy with Mist and Fog 32 0 29 -1.7 88 88 N 6 9 29.97 1015 3 4 0.00 0.00
4:52 am 04:52 Cloudy with Mist and Fog 31 -0.6 29 -1.7 92 92 N 6 9 29.94 1014 2 3 0.00 0.00
5:00 am 05:00 Cloudy with Mist and Fog 31 -0.6 29 -1.7 92 92 N 7 11 29.96 1015 2 3 0.00 0.00
5:52 am 05:52 Cloudy with Mist and Fog 31 -0.6 29 -1.7 92 92 Calm 29.92 1013 2 2 0.00 0.00
6:52 am 06:52 Cloudy with Mist and Fog 31 -0.6 29 -1.7 92 92 N 9 15 29.90 1012 2 3 0.00 0.00
7:16 am 07:16 Cloudy with Mist and Fog 31 -0.6 29 -1.7 92 92 N 10 17 29.91 1013 1 1 0.00 0.00
7:34 am 07:34 Cloudy with Light Freezing Drizzle 31 -0.6 29 -1.7 92 92 N 9 15 29.91 1013 1 1 0.00 0.03
7:52 am 07:52 Cloudy with Light Freezing Drizzle 32 0 29 -1.7 88 88 NNW 10 17 29.88 1012 1 1 0.00 0.03
7:59 am 07:59 Cloudy with Light Freezing Drizzle 32 0 29 -1.7 88 88 NNW 9 15 29.92 1013 1 2 0.00 0.03
8:52 am 08:52 Cloudy with Mist and Fog 32 0 30 -1.1 92 92 N 8 13 29.89 1012 1 2 0.00 0.03
9:39 am 09:39 Cloudy with Light Freezing Drizzle 32 0 30 -1.1 92 92 N 12 19 29.85 1011 1 2 0.00 0.03
9:52 am 09:52 Cloudy with Light Freezing Drizzle 32 0 30 -1.1 92 92 NNW 9 15 29.83 1010 1 2 0.00 0.03
10:46 am 10:46 Cloudy with Mist and Fog 34 1 30 -1 87 87 NNE 8 13 29.83 1010 2 3 0.00 0.03
10:52 am 10:52 Cloudy with Mist and Fog 34 1.1 30 -1.1 85 85 NNE 8 13 29.80 1009 3 4 0.00 0.03
11:16 am 11:16 Cloudy with Drizzle 33 0.6 30 -1.1 89 89 N 10 17 29.81 1009 2 2 0.00 0.03
11:52 am 11:52 Cloudy with Light Rain 33 0.6 31 -0.6 92 92 N 13 20 29.75 1008 1 2 0.00 0.03
12:04 pm 12:04 Cloudy with Light Rain 33 0.6 31 -0.6 92 92 N 15 24 29.75 1007 1 2 0.00 0.03
12:52 pm 12:52 Cloudy with Light Rain 33 0.6 31 -0.6 92 92 N 20 31 29.66 1004 2 2 0.00 0.03
1:47 pm 13:47 Cloudy with Light Rain 34 1 30 -1 87 87 N 20 31 29.66 1004 2 3 0.06 1.52
1:52 pm 13:52 Cloudy with Light Rain 33 0.6 30 -1.1 89 89 N 21 33 29.62 1003 3 4 0.06 1.52
2:34 pm 14:34 Cloudy with Light Rain/Snow 33 0.6 30 -1.1 89 89 N 21 33 29.63 1003 2 3 0.00 0.03
2:52 pm 14:52 Cloudy with Light Rain/Snow 33 0.6 30 -1.1 89 89 N 18 30 29.61 1003 2 3 0.01 0.25
3:01 pm 15:01 Cloudy with Mist and Fog 32 0 29 -1.7 88 88 NNW 22 35 29.63 1003 2 3 0.01 0.25
3:32 pm 15:32 Windy with Snow Likely 32 0 28 -2.2 85 85 NNW 25 41 29.63 1003 1 1 0.05 1.27
3:52 pm 15:52 Cloudy with Heavy Snow 31 -0.6 28 -2.2 89 89 NNW 29 46 29.59 1002 0 0 0.06 1.52
4:12 pm 16:12 Cloudy with Snow 30 -1.1 27 -2.8 88 88 NNW 26 43 29.63 1003 1 1 0.01 0.25
4:29 pm 16:29 Cloudy with Snow 30 -1.1 27 -2.8 88 88 N 31 50 29.62 1003 0 0 0.01 0.25
4:52 pm 16:52 Mostly Cloudy with Snow 29 -1.7 26 -3.3 89 89 NNW 35 56 29.57 1001 0 0 0.02 0.51
5:52 pm 17:52 Mostly Cloudy with Nearby Thunderstorms 28 -2.2 26 -3.3 92 92 NNW 26 43 29.61 1003 0 0 0.09 2.29
6:22 pm 18:22 Mostly Cloudy with Snow 28 -2.2 25 -3.9 88 88 NNW 31 50 29.65 1004 0 0 0.01 0.25
6:52 pm 18:52 Mostly Cloudy with Snow 28 -2.2 25 -3.9 88 88 NNW 30 48 29.63 1003 1 1 0.06 1.52
7:01 pm 19:01 Mostly Cloudy with Snow 28 -2.2 25 -3.9 88 88 NNW 29 46 29.67 1005 1 1 0.01 0.25
7:52 pm 19:52 Mostly Cloudy with Snow 27 -2.8 24 -4.4 89 89 NW 24 39 29.68 1005 1 1 0.04 1.02
8:04 pm 20:04 Mostly Cloudy with Light Snow 27 -2.8 23 -5 85 85 NW 25 41 29.72 1007 1 2 0.00 0.03
8:31 pm 20:31 Mostly Cloudy with Light Snow 27 -2.8 23 -5 85 85 NW 33 54 29.73 1007 1 1 0.01 0.25
8:38 pm 20:38 Mostly Cloudy with Light Snow 27 -2.8 23 -5 85 85 NW 26 43 29.74 1007 1 1 0.01 0.25
8:43 pm 20:43 Mostly Cloudy with Light Snow 26 -3.3 23 -5 88 88 NW 28 44 29.75 1007 1 2 0.01 0.25
8:52 pm 20:52 Windy with Snow Likely 26 -3.3 22 -5.6 84 84 NW 25 41 29.71 1006 2 3 0.01 0.25
8:55 pm 20:55 Windy with Snow Likely 25 -3.9 21 -6.1 85 85 NW 25 41 29.76 1008 2 3 0.00 0.03
9:00 pm 21:00 Windy with Snow Likely 25 -3.9 21 -6.1 85 85 NW 28 44 29.76 1008 2 3 0.00 0.03
9:24 pm 21:24 Mostly Cloudy with Light Snow 24 -4.4 20 -6.7 84 84 NW 29 46 29.78 1008 1 1 0.00 0.03
9:34 pm 21:34 Mostly Cloudy with Light Snow 24 -4.4 20 -6.7 84 84 NW 23 37 29.78 1008 1 1 0.01 0.25
9:40 pm 21:40 Mostly Cloudy with Light Snow 24 -4.4 20 -6.7 84 84 NW 28 44 29.79 1009 1 2 0.01 0.25
9:52 pm 21:52 Windy with Snow Likely 24 -4.4 19 -7.2 81 81 NW 26 43 29.76 1008 2 3 0.01 0.25
10:47 pm 22:47 Windy with Snow Likely 25 -4 18 -8 74 74 NW 25 41 29.83 1010 3 4 0.01 0.25
10:52 pm 22:52 Windy with Snow Likely 24 -4.4 18 -7.8 77 77 NW 23 37 29.79 1009 4 6 0.01 0.25
11:00 pm 23:00 Mostly Cloudy with Blowing Snow 24 -4.4 17 -8.3 75 75 NW 25 41 29.84 1011 4 6 0.00 0.03
11:52 pm 23:52 Mostly Cloudy with Blowing Snow 22 -5.6 16 -8.9 78 78 NW 24 39 29.83 1010 4 6 0.00 0.03

Powered by AerisWeather